Location: Oshawa
(43.9000°N, 78.8670°W)
Time: 03:50:27
(UTC-05:00)

Cosmos 1500 - Visible Passes

Search period start: 03 March 2015 00:00
Search period end: 13 March 2015 01:00
Orbit: 511 x 538 km, 82.5° (Epoch: 02 March)

Date Brightness Start Highest point End Pass type
(mag) Time Alt. Az. Time Alt. Az. Time Alt. Az.
03 Mar 6.6 05:40:14 10° NE 05:41:45 12° ENE 05:43:28 10° E visible
03 Mar 3.2 19:31:29 10° S 19:35:16 56° E 19:39:02 10° NNE visible
03 Mar 6.6 21:10:23 10° W 21:11:38 11° WNW 21:12:42 10° NW visible
04 Mar 6.7 05:28:28 10° NE 05:29:27 11° ENE 05:30:38 10° E visible
04 Mar 3.3 19:19:19 10° S 19:23:02 49° E 19:26:45 10° NNE visible
04 Mar 6.5 20:57:34 10° W 20:59:19 12° WNW 21:00:55 10° NW visible
05 Mar 3.5 19:07:08 10° SSE 19:10:46 43° E 19:14:27 10° NNE visible
05 Mar 6.4 20:44:54 10° WSW 20:47:00 14° WNW 20:48:58 10° NW visible
06 Mar 3.7 18:54:58 10° SSE 18:58:31 38° E 19:02:06 10° NNE visible
06 Mar 6.3 20:32:16 10° WSW 20:34:40 15° WNW 20:36:56 10° NNW visible
07 Mar 3.8 18:42:47 10° SSE 18:46:14 34° E 18:49:44 10° NNE visible
07 Mar 6.2 20:19:42 10° WSW 20:22:19 17° WNW 20:24:51 10° NNW visible
08 Mar 6.1 21:07:09 10° WSW 21:09:58 19° WNW 21:12:43 10° NNW visible
09 Mar 3.4 07:00:36 10° N 07:04:26 76° E 07:08:16 10° SSE visible
09 Mar 6.0 20:54:37 10° WSW 20:57:36 21° WNW 21:00:32 10° NNW visible
10 Mar 3.7 06:48:17 10° N 06:52:07 66° E 06:55:56 10° SSE visible
10 Mar 5.8 20:42:05 10° SW 20:45:15 23° WNW 20:48:20 10° NNW visible
11 Mar 3.9 06:35:59 10° N 06:39:46 58° E 06:43:34 10° SSE visible
11 Mar 5.6 20:29:35 10° SW 20:32:52 26° WNW 20:36:06 10° NNW visible
12 Mar 4.2 06:23:40 10° N 06:27:25 50° ENE 06:31:10 10° SSE visible
12 Mar 5.4 20:17:05 10° SW 20:20:29 29° WNW 20:23:51 10° NNW visible
